Simultaneous Nadir Overpasses (SNOs) Predictions

Prediction of SNOs between GOES-17 and METOP-C Satellite Orbit:

Table of predicted SNOs for the next 14.0 days since TLE Epoch: 10/26/2024
Index Date Time (GOES-17) GOES-17 Lat,Lon METOP-C Lat,Lon Distance(km) Time Diff (sec)
1 10/27/2024 04:35:54 0.01,-104.67 -0.25,-105.82 130.88 80
2 10/28/2024 04:12:34 0.01,-104.67 0.84,-100.82 438.40 80
3 10/29/2024 16:31:27 -0.01,-104.74 0.13,-105.39 73.94 80
4 10/30/2024 16:13:27 -0.01,-104.74 -0.96,-100.39 495.70 80
5 11/01/2024 04:32:28 0.02,-104.69 -0.05,-104.99 33.98 80
6 11/03/2024 16:30:40 -0.01,-104.75 -0.04,-104.55 22.63 80
7 11/06/2024 04:26:21 -0.02,-104.70 0.11,-104.15 62.85 80
8 11/07/2024 16:45:12 0.02,-104.75 0.89,-108.71 450.92 80
9 11/08/2024 16:27:13 0.03,-104.75 -0.23,-103.71 118.66 80
